{"data":{"norad_id":44804,"epoch":"2026-05-25T04:06:22.150080Z","epoch_age_seconds":70317,"freshness":"FRESH","line1":"1 44804U 19081A   26145.17108970  .00002281  00000+0  11130-3 0  9991","line2":"2 44804  97.4316 207.4053 0011612 226.5959 133.4310 15.19260215359972","mean_motion":15.19260215,"eccentricity":0.0011612,"inclination_deg":97.4316,"raan_deg":207.4053,"arg_perigee_deg":226.5959,"mean_anomaly_deg":133.431,"bstar":0.0001113,"rev_number":35997,"period_min":94.782973040599,"perigee_km":500.07887480313,"apogee_km":516.07141388716,"semimajor_km":6886.2121443451,"source":"CELESTRAK","updated_at":"2026-05-25T13:38:12.832443Z"}}